Weather Roundup
Issued by NWS Chicago, IL

Home | Current Version | Previous Version | Graphics & Text | Print | Product List | Glossary On
Versions: 1 2 3 4 5 6 7 8 9 10 11 12 13 14 15 16 17 18 19 20 21 22 23 24 25 26 27 28 29 30 31 32 33 34 35 36 37 38 39 40 41 42 43 44 45 46 47 48 49 50
000
NZUS59 KLOT 222310
HRRLOT

CHICAGO AREA WEATHER ROUNDUP
NATIONAL WEATHER SERVICE CHICAGO/ROMEOVILLE IL
500 PM CST MON DEC 22 2014

NOTE: "FAIR" INDICATES FEW OR NO CLOUDS BELOW 12,000 FEET WITH NO
SIGNIFICANT WEATHER AND/OR OBSTRUCTIONS TO VISIBILITY.

* THESE STATIONS ARE NOT UNDER NWS QUALITY CONTROL. THEY ALSO MAY NOT
  REPORT WEATHER SUCH AS PRECIPITATION OR FOG.

ILZ005-006-012>014-019>023-230000-
NORTHEAST ILLINOIS

CITY           SKY/WX    TMP DP  RH WIND       PRES   REMARKS
OHARE          LGT RAIN  38  36  92 SE13      29.68F FOG
MIDWAY         LGT RAIN  40  38  93 SE12      29.69F FOG
AURORA         LGT RAIN  41  37  86 E13       29.65F FOG
LANSING*       LGT RAIN  40  38  96 SE13      29.70F
JOLIET*        LGT RAIN  39  38  95 SE9G17    29.66S
WAUKEGAN       LGT RAIN  37  35  92 E12       29.70F FOG
DUPAGE AIRPORT LGT RAIN  39  37  92 E10       29.65F FOG
WHEELING       LGT RAIN  38  36  92 SE10      29.71F FOG
KANKAKEE*      LGT RAIN  39  39  99 E13       29.68S
MORRIS*        LGT RAIN  42  42  99 SE16      29.64F
LEWIS AIRPORT* LGT RAIN  40  40 100 SE15      29.66F
NORTHERLY IS     N/A     37  36  96 E9          N/A
$$

WIZ051-052-058>065-066-070>072-230000-
SOUTHEAST WISCONSIN

CITY           SKY/WX    TMP DP  RH WIND       PRES   REMARKS
MILWAUKEE      LGT RAIN  37  34  89 E17       29.73F FOG
KENOSHA*       LGT RAIN  37  36  96 E13       29.71F FOG
RACINE*        LGT RAIN  37  35  92 SE14      29.74F FOG
BURLINGTON     MIX PCPN  34  33  97 E13       29.69S WCI  25
WAUKESHA       LGT RAIN  34  34 100 E14       29.71F FOG     WCI  24
WEST BEND      LGT RAIN  34  32  93 E10       29.73F WCI  26
$$

INZ001>003-010>013-019-020-230000-
NORTHWEST INDIANA

CITY           SKY/WX    TMP DP  RH WIND       PRES   REMARKS
GARY*          NOT AVBL
MICHIGAN CITY* NOT AVBL
RENSSELAER*    NOT AVBL
VALPARAISO     LGT RAIN  38  37  97 E16       29.72F FOG
$$

LMZ740>746-230000-
SOUTHERN LAKE MICHIGAN

STATION/POSITION TIME  SKY/WX   TEMP WIND        PRES    VSBY
                                AIR  DIR/SP/G
                 (UTC)          (F)  (DEG/KT/KT) (MB)    (MI)
HARRISON CRIB    2300            38  130/ 17/ 20   N/A
BURNHAM HARBOR   2300            37  110/  9/ 10   N/A
CALUMET HARBOR   2300            39  120/  8/ 12 1004.8F
BURNS HARBOR     NOT AVBL
MICHIGAN CITY    NOT AVBL
$$

ABBREVIATIONS USED IN REMARKS
   TC - TEMPERATURE IN CELSIUS
  WCI - WIND CHILL INDEX
   HX - HEAT INDEX
  VSB - VISIBILITY
$$



USA.gov is the U.S. government's official web portal to all federal, state and local government web resources and services.